Regional Weather Roundup
Issued by NWS

Home | Current Version | Previous Version | Text Only | Print | Product List | Glossary Off
Versions: 1 2 3 4 5 6 7 8 9 10 11 12 13 14 15 16 17 18 19 20 21 22 23 24 25 26 27 28 29 30 31 32 33 34 35 36 37 38 39 40 41 42 43 44 45 46 47 48 49 50

000
ASUS43 KTOP 310159
RWRKS

WEATHER ROUNDUP FOR KANSAS
NATIONAL WEATHER SERVICE GOODLAND KS
800 PM CST FRI JAN 30 2015

NOTE:  "FAIR" INDICATES FEW OR NO CLOUDS BELOW 12,000 FEET WITH NO
SIGNIFICANT WEATHER AND/OR OBSTRUCTIONS TO VISIBILITY.

KSZ001>006-013>018-027>032-041>047-310300-
NORTHWEST KANSAS

CITY           SKY/WX    TMP DP  RH WIND       PRES   REMARKS
GOODLAND       CLOUDY    35  32  88 S16       30.14F WCI  25
HAYS           CLOUDY    37  27  65 S9        30.28F
HILL CITY      LGT RAIN  38  32  79 S20       30.26R WCI  28
RUSSELL        CLOUDY    37  32  82 S10       30.27F WCI  30
$$

KSZ061>065-074>080-084>089-310300-
SOUTHWEST KANSAS

CITY           SKY/WX    TMP DP  RH WIND       PRES   REMARKS
DODGE CITY     LGT SNOW  33  30  88 S13       30.28F FOG     WCI  24
ELKHART          N/A     34  28  79 SE14        N/A  WCI  25
GARDEN CITY    LGT SNOW  31  31 100 S14       30.22F VSB 1   WCI  21
LIBERAL        CLOUDY    34  28  80 SE8       30.26F
$$

KSZ066>073-081>083-090>101-310300-
SOUTHEAST KANSAS

CITY           SKY/WX    TMP DP  RH WIND       PRES   REMARKS
CHANUTE        CLOUDY    38  26  62 S5        30.38F
COFFEYVILLE    CLOUDY    40  27  59 CALM      30.39F
HUTCHINSON     CLOUDY    40  26  57 S9        30.35S
MEDICINE LODGE   N/A     39  25  57 SE5       30.35S
NEWTON         CLOUDY    39  23  52 SE9       30.35F
PARSONS        CLOUDY    39  26  59 CALM      30.39F
WICHITA INTL   CLOUDY    41  25  53 S7        30.36S
WICHITA JABRA  CLOUDY    41  25  53 S9        30.36S
WINFIELD       CLOUDY    41  22  46 S3        30.39S
$$

KSZ007>012-019>026-033>040-048>060-102>105-310300-
NORTHEAST KANSAS

CITY           SKY/WX    TMP DP  RH WIND       PRES   REMARKS
CONCORDIA      LGT RAIN  39  28  64 S12       30.31R WCI  32
EMPORIA        CLOUDY    36  24  62 S6        30.36F
LAWRENCE       CLOUDY    34  23  64 S5        30.38F
MANHATTAN      CLOUDY    39  26  59 SW5       30.36R
OLATHE IND     CLOUDY    33  23  66 S6        30.38F
OLATHE EXE     CLOUDY    34  23  64 S6        30.36F
SALINA         LGT RAIN  39  32  76 S6        30.34S
TOPEKA BILLARD CLOUDY    37  23  56 S6        30.38S
TOPEKA FORBES  CLOUDY    36  23  59 S6        30.36F
$$



USA.gov is the U.S. government's official web portal to all federal, state and local government web resources and services.